Change the Weather History Date:

Sunday, September 2, 2012

  Actual Average Record
Temperature  
Mean Temperature 77 °F 71 °F  
Max Temperature 81 °F 83 °F 101 °F (2011)
Min Temperature 72 °F 60 °F 52 °F (2001)
Degree Days  
Heating Degree Days 0 0  
Month to date heating degree days 0 0  
Since 1 July heating degree days 0 6  
Cooling Degree Days 12 7  
Month to date cooling degree days 26 14  
Year to date cooling degree days 1340 932  
Growing Degree Days 26 (Base 50)    
Moisture  
Dew Point 73 °F    
Average Humidity 90    
Maximum Humidity 100    
Minimum Humidity 79    
Precipitation  
Precipitation 0.37 in 0.12 in 2.62 in (2010)
Month to date precipitation 3.01 0.26  
Year to date precipitation 16.00 26.57  
Sea Level Pressure  
Sea Level Pressure 29.80 in    
Wind  
Wind Speed 10 mph (NE)    
Max Wind Speed 21 mph    
Max Gust Speed 23 mph    
Visibility 7 miles    
Events Rain    
T = Trace of Precipitation, MM = Missing Value Source: NWS Daily Summary

Daily Weather History Graph

Daily Weather History Graph

Search for Another Location

Airport or City:

Trip Planner

Search our weather history database for the weather conditions in past years. The results will help you decide how hot, cold, wet, or windy it might be!

Date:

Astronomy

Sep. 02, 2012 Rise Set
Actual Time 6:24 AM CDT 7:24 PM CDT
Civil Twilight 5:57 AM CDT 7:51 PM CDT
Nautical Twilight 5:24 AM CDT 8:24 PM CDT
Astronomical Twilight 4:50 AM CDT 8:58 PM CDT
Moon 8:12 PM CDT (9/2) 8:32 AM CDT (9/2)
Length of Visible Light 13h 54m
Length of Day
12h 59m
Waning Gibbous, 95% of the Moon is Illuminated
Sep 2
Waning Gibbous
Sep 8
Last Quarter
Sep 15
New
Sep 22
First Quarter
Sep 29
Full

Hourly Weather History & Observations

Time (CDT) Temp. Heat Index Dew Point Humidity Pressure Visibility Wind Dir Wind Speed Gust Speed Precip Events Conditions
12:01 AM 73.4 °F - 71.6 °F 94% 29.84 in 10.0 mi ENE 8.1 mph - N/A   Overcast
12:09 AM 73.4 °F - 71.6 °F 94% 29.84 in 10.0 mi ENE 9.2 mph - N/A   Overcast
12:16 AM 73.4 °F - 71.6 °F 94% 29.84 in 9.0 mi ENE 8.1 mph - 0.00 in Rain Light Rain
12:51 AM 73.4 °F - 71.6 °F 94% 29.84 in 9.0 mi East 6.9 mph - 0.00 in   Overcast
12:54 AM 73.0 °F - 72.0 °F 96% 29.82 in 7.0 mi East 5.8 mph - 0.00 in   Overcast
1:13 AM 73.4 °F - 71.6 °F 94% 29.83 in 10.0 mi ESE 10.4 mph - N/A   Overcast
1:25 AM 73.4 °F - 71.6 °F 94% 29.83 in 9.0 mi ESE 9.2 mph - N/A   Overcast
1:54 AM 73.0 °F - 72.0 °F 96% 29.81 in 10.0 mi East 6.9 mph - 0.00 in Rain Light Rain
2:16 AM 73.4 °F - 71.6 °F 94% 29.82 in 10.0 mi East 8.1 mph - 0.01 in Rain Light Rain
2:47 AM 73.4 °F - 71.6 °F 94% 29.81 in 10.0 mi East 6.9 mph - 0.02 in Rain Light Rain
2:54 AM 73.0 °F - 72.0 °F 96% 29.79 in 10.0 mi East 6.9 mph - 0.02 in Rain Light Rain
3:54 AM 72.0 °F - 71.1 °F 97% 29.78 in 10.0 mi East 8.1 mph - 0.01 in   Overcast
4:54 AM 72.0 °F - 71.1 °F 97% 29.77 in 7.0 mi East 11.5 mph - N/A   Overcast
5:33 AM 71.6 °F - 71.6 °F 100% 29.78 in 9.0 mi East 13.8 mph - 0.00 in Rain Light Rain
5:54 AM 72.0 °F - 71.1 °F 97% 29.77 in 7.0 mi East 9.2 mph - 0.02 in Rain Light Rain
6:08 AM 71.6 °F - 71.6 °F 100% 29.79 in 10.0 mi East 10.4 mph - 0.01 in   Overcast
6:54 AM 72.0 °F - 71.1 °F 97% 29.78 in 10.0 mi ENE 12.7 mph - 0.01 in   Overcast
7:36 AM 73.4 °F - 71.6 °F 94% 29.80 in 2.0 mi NE 11.5 mph - 0.00 in Rain Light Rain
7:54 AM 73.0 °F - 72.0 °F 96% 29.79 in 1.8 mi NE 10.4 mph - 0.00 in   Overcast
8:12 AM 73.4 °F - 71.6 °F 94% 29.80 in 2.5 mi NE 9.2 mph - N/A   Overcast
8:24 AM 73.4 °F - 71.6 °F 94% 29.80 in 10.0 mi NE 8.1 mph - N/A   Overcast
8:54 AM 73.9 °F - 72.0 °F 93% 29.79 in 9.0 mi NE 8.1 mph - N/A   Overcast
9:07 AM 73.4 °F - 73.4 °F 100% 29.81 in 2.5 mi NE 9.2 mph - 0.00 in Rain Light Rain
9:13 AM 73.4 °F - 73.4 °F 100% 29.81 in 6.0 mi NNE 6.9 mph - 0.00 in   Overcast
9:54 AM 75.0 °F - 73.0 °F 94% 29.79 in 6.0 mi NE 6.9 mph - 0.00 in Rain Light Rain
10:54 AM 75.2 °F - 73.4 °F 94% 29.80 in 6.0 mi ENE 10.4 mph - N/A Rain Light Rain
11:00 AM 75.2 °F - 73.4 °F 94% 29.81 in 2.0 mi NE 13.8 mph - 0.06 in Rain Light Rain
11:04 AM 73.4 °F - 73.4 °F 100% 29.81 in 1.2 mi NE 13.8 mph - 0.14 in Rain Heavy Rain
11:15 AM 73.4 °F - 73.4 °F 100% 29.80 in 2.0 mi NNE 9.2 mph - 0.18 in Rain Light Rain
11:23 AM 75.2 °F - 73.4 °F 94% 29.80 in 10.0 mi NNE 10.4 mph - 0.18 in   Overcast
11:54 AM 75.9 °F - 73.9 °F 94% 29.78 in 4.0 mi NNE 12.7 mph - 0.18 in Rain Light Rain
12:05 PM 75.2 °F - 73.4 °F 94% 29.79 in 3.0 mi North 10.4 mph - 0.00 in Rain Light Rain
12:11 PM 75.2 °F - 73.4 °F 94% 29.79 in 2.5 mi North 12.7 mph - 0.01 in Rain Light Rain
12:19 PM 75.2 °F - 73.4 °F 94% 29.79 in 3.0 mi North 10.4 mph - 0.01 in Rain Light Rain
12:29 PM 75.2 °F - 73.4 °F 94% 29.79 in 7.0 mi North 11.5 mph - 0.01 in Rain Light Rain
12:54 PM 77.0 °F - 75.0 °F 94% 29.76 in 10.0 mi NNE 10.4 mph - 0.01 in   Overcast
1:54 PM 80.1 °F 85.4 °F 75.9 °F 87% 29.75 in 10.0 mi NE 11.5 mph - 0.00 in   Overcast
2:03 PM 78.8 °F - 75.2 °F 89% 29.76 in 10.0 mi NNE 9.2 mph - N/A   Overcast
2:13 PM 78.8 °F - 73.4 °F 83% 29.76 in 10.0 mi NE 12.7 mph - 0.00 in Rain Light Rain
2:54 PM 78.1 °F - 73.9 °F 87% 29.74 in 10.0 mi NE 13.8 mph - 0.00 in   Mostly Cloudy
3:54 PM 80.1 °F 84.5 °F 73.9 °F 81% 29.75 in 10.0 mi NNE 12.7 mph - N/A   Overcast
4:33 PM 77.0 °F - 73.4 °F 89% 29.77 in 3.0 mi NE 16.1 mph - 0.00 in Rain Rain
4:35 PM 75.2 °F - 73.4 °F 94% 29.77 in 2.5 mi NE 16.1 mph - 0.01 in Rain Rain
4:44 PM 75.2 °F - 75.2 °F 100% 29.77 in 3.0 mi NE 12.7 mph - 0.02 in Rain Light Rain
4:47 PM 75.2 °F - 75.2 °F 100% 29.77 in 2.5 mi NE 15.0 mph - 0.02 in Rain Light Rain
4:54 PM 75.9 °F - 75.0 °F 97% 29.75 in 1.5 mi NE 12.7 mph - 0.09 in Rain Heavy Rain
5:01 PM 75.2 °F - 75.2 °F 100% 29.77 in 3.0 mi NE 9.2 mph - 0.03 in Rain Rain
5:22 PM 78.8 °F - 75.2 °F 89% 29.78 in 3.0 mi NE 12.7 mph - 0.03 in   Overcast
5:30 PM 77.0 °F - 75.2 °F 94% 29.78 in 10.0 mi NE 13.8 mph - 0.03 in   Overcast
5:40 PM 77.0 °F - 75.2 °F 94% 29.78 in 10.0 mi NE 17.3 mph 21.9 mph 0.03 in   Overcast
5:54 PM 75.9 °F - 73.9 °F 94% 29.77 in 10.0 mi NE 16.1 mph - 0.03 in   Overcast
6:05 PM 75.2 °F - 73.4 °F 94% 29.79 in 10.0 mi NE 13.8 mph - N/A   Overcast
6:30 PM 77.0 °F - 73.4 °F 89% 29.79 in 10.0 mi NE 11.5 mph - N/A   Overcast
6:54 PM 75.9 °F - 73.0 °F 91% 29.78 in 10.0 mi NE 10.4 mph - N/A   Mostly Cloudy
7:54 PM 75.0 °F - 73.0 °F 94% 29.79 in 10.0 mi NNE 10.4 mph - N/A   Scattered Clouds
8:25 PM 75.2 °F - 73.4 °F 94% 29.82 in 10.0 mi NNE 9.2 mph - N/A   Mostly Cloudy
8:54 PM 73.9 °F - 73.0 °F 97% 29.81 in 10.0 mi NNE 9.2 mph - N/A   Scattered Clouds
9:51 PM 73.4 °F - 71.6 °F 94% 29.83 in 10.0 mi NNE 9.2 mph - N/A   Overcast
9:54 PM 73.9 °F - 73.0 °F 97% 29.82 in 10.0 mi NNE 10.4 mph - N/A   Overcast
10:54 PM 73.4 °F - 73.4 °F 100% 29.84 in 10.0 mi NE 10.4 mph - N/A   Overcast
11:03 PM 73.4 °F - 73.4 °F 100% 29.84 in 10.0 mi NE 11.5 mph - N/A   Overcast
11:16 PM 73.4 °F - 71.6 °F 94% 29.84 in 10.0 mi NE 13.8 mph - N/A   Overcast
11:30 PM 73.4 °F - 71.6 °F 94% 29.85 in 10.0 mi NE 10.4 mph - N/A   Overcast
11:54 PM 73.9 °F - 72.0 °F 93% 29.83 in 10.0 mi NE 9.2 mph - N/A   Overcast